Wetbulb
71.25 74.67 77.67 77.43 77.63 77.54 77.14 76.43 76.50 76.92 76.81 77.05 76.23 76.64 76.78 76.88 76.45 75.96 75.97 76.37 76.25 76.54 76.68 77.27 76.99 77.22 77.27 77.46 77.57 77.33 77.54 77.72 77.52 77.37 77.47 77.35 76.89 77.09 77.34 77.21 77.00 75.35 76.42
72.88 75.39 78.05 77.99 77.58 77.63 77.58 77.08 76.70 77.02 76.96 76.68 76.46 76.02 76.27 76.10 76.10 75.97 75.72 76.32 76.35 76.50 76.87 77.09 77.38 77.19 77.30 77.36 77.46 77.69 77.67 77.66 78.20 77.01 77.12 77.29 77.34 76.65 76.58 76.66 76.70 75.79 76.71
73.48 75.62 76.27 77.88 77.29 77.45 77.38 77.29 77.22 76.99 76.35 76.47 76.55 75.98 75.87 75.93 75.67 76.03 76.43 76.30 76.39 76.97 77.00 77.08 77.25 77.33 77.25 77.25 77.17 77.32 77.38 77.77 77.71 77.17 77.02 74.43 74.72 77.31 76.94 77.39 77.42 76.47 76.44
74.09 74.57 75.52 77.66 77.79 76.87 76.75 76.80 76.41 76.57 76.78 76.47 76.37 76.23 76.04 75.82 76.01 76.11 76.60 76.33 76.23 76.85 77.17 77.06 77.33 77.29 77.27 77.25 77.13 77.27 77.04 77.24 77.36 76.94 73.81 74.26 75.01 77.01 77.06 76.97 76.58 76.25 75.73
73.02 73.88 75.07 77.72 78.00 77.26 77.30 76.99 76.71 76.75 76.87 76.64 76.59 76.64 76.41 75.94 75.92 76.44 76.73 76.50 75.98 76.57 77.20 77.30 77.28 77.26 76.92 76.62 76.80 76.79 76.82 77.03 77.63 75.04 72.86 73.23 73.85 75.99 77.31 77.18 76.43 76.19 76.46
72.63 73.86 76.45 77.47 77.23 77.19 77.38 76.92 77.08 77.17 76.43 76.38 76.27 76.25 75.73 75.82 76.18 75.98 76.50 76.66 76.53 76.51 76.96 77.44 76.73 76.68 77.01 76.75 76.25 75.95 75.84 75.96 75.32 72.64 72.09 74.58 74.10 76.68 77.22 76.85 76.99 76.92 77.13
72.95 74.19 75.55 78.00 77.46 77.02 77.62 77.13 76.93 76.66 76.36 76.22 75.70 75.95 75.87 74.65 74.79 75.48 76.01 76.58 76.75 76.21 76.48 77.11 77.23 76.93 76.65 76.53 75.93 75.81 75.43 74.98 74.13 72.11 72.81 72.82 73.60 77.30 76.99 77.24 76.79 76.90 77.12
73.50 74.45 75.05 77.10 76.97 76.97 77.53 76.76 77.42 76.71 76.47 75.67 75.45 75.81 75.51 75.37 75.26 74.89 76.29 76.40 76.89 76.56 76.12 76.18 76.35 76.87 76.84 76.39 76.21 75.77 75.29 75.09 73.47 72.05 72.34 72.76 76.83 77.72 77.16 76.97 77.07 77.00 76.70
74.18 73.80 74.10 74.71 75.61 77.07 77.12 77.36 76.87 76.97 76.05 74.21 73.65 74.54 74.71 75.12 75.66 75.32 75.62 76.70 76.87 76.93 76.73 75.96 75.98 76.18 76.45 76.66 76.22 75.57 75.15 74.84 72.66 72.09 73.31 73.83 77.15 77.20 77.04 76.89 76.89 76.75 76.68
73.01 73.61 73.31 73.37 73.68 73.23 74.76 77.12 77.14 76.45 76.13 74.51 73.85 73.85 73.49 73.33 73.35 74.40 76.11 76.36 76.95 76.84 76.87 76.72 76.61 76.47 76.27 76.09 75.65 75.29 74.70 74.84 72.79 71.92 72.86 73.98 76.95 77.30 76.87 76.71 77.00 76.80 76.67
71.98 72.51 72.74 73.17 72.75 72.32 73.12 75.38 76.33 76.46 76.45 75.71 74.88 74.62 72.04 69.37 69.78 69.25 74.03 76.20 76.20 76.31 76.18 76.81 76.75 76.42 75.97 76.08 76.11 75.84 74.81 72.61 72.18 71.84 72.30 75.20 76.82 76.84 76.88 76.47 76.51 76.58 76.51
69.98 71.08 72.66 73.33 73.07 72.40 74.54 73.93 73.71 74.45 73.76 71.06 70.61 71.02 70.80 70.88 71.43 72.07 73.67 75.46 76.04 76.07 76.57 76.40 76.26 76.07 75.26 72.71 72.54 74.89 72.41 72.07 71.34 71.95 71.97 75.70 76.76 76.83 76.85 76.71 76.67 76.40 76.46
69.86 71.21 72.14 72.33 72.04 72.27 72.68 72.73 73.17 73.41 73.96 71.70 70.61 70.48 71.21 71.62 71.80 70.79 70.01 71.20 71.59 74.88 73.03 74.31 74.13 73.60 72.96 72.14 71.55 71.61 71.85 71.45 71.16 72.22 73.13 75.69 77.12 76.66 76.61 76.31 76.44 76.14 75.72
68.99 70.59 71.25 71.41 70.98 71.08 71.42 72.09 72.67 73.40 72.54 71.08 72.00 71.91 70.95 70.62 70.63 71.09 70.54 69.64 70.76 71.70 71.82 71.92 71.73 71.83 71.79 72.01 71.57 71.36 71.52 72.09 71.38 73.65 73.10 76.49 77.31 77.26 76.26 75.56 75.68 75.64 75.61
68.72 69.67 70.32 71.21 71.49 71.22 71.82 72.84 72.90 73.06 72.38 71.59 73.07 72.58 72.31 72.13 71.68 72.26 71.54 70.45 70.74 71.23 71.65 71.23 70.71 71.34 71.29 71.62 72.06 71.82 72.01 71.27 71.87 72.25 71.56 76.68 76.66 77.06 77.66 76.47 76.16 76.47 76.34
68.40 69.49 70.55 71.21 71.42 71.34 72.32 72.89 72.45 72.96 72.06 72.88 72.87 72.77 73.30 72.87 73.49 72.88 72.29 71.22 71.71 71.84 71.09 71.08 71.19 70.54 71.35 71.30 70.99 72.02 71.18 72.23 72.17 72.04 72.33 72.40 76.17 77.02 77.81 78.19 77.21 77.05 76.81
67.73 68.94 70.03 69.89 70.46 70.28 72.38 72.42 72.57 71.76 72.06 72.73 73.02 73.26 73.24 73.09 73.28 73.33 72.56 72.35 71.93 72.13 71.44 71.50 71.56 71.73 71.06 70.39 69.09 71.20 72.16 72.41 71.82 72.15 71.41 71.21 73.29 76.75 77.12 78.59 78.16 77.71 77.10
67.23 68.25 69.55 72.00 70.15 69.05 70.86 71.80 72.66 71.79 71.69 73.30 73.41 73.96 73.48 73.53 73.58 72.06 72.61 72.38 72.91 72.21 71.94 71.44 70.85 70.63 69.73 68.46 68.53 70.93 71.39 71.76 71.78 72.56 72.93 72.15 72.52 72.64 74.17 77.65 78.14 78.04 77.43
68.32 67.98 68.63 68.67 69.69 70.99 70.99 71.56 73.25 72.36 72.67 73.04 73.34 72.53 73.95 73.96 73.80 72.63 72.51 72.89 72.98 72.19 71.78 71.48 70.60 70.42 69.35 69.26 70.43 70.76 70.74 71.52 71.84 73.33 72.48 71.86 71.84 71.79 71.67 74.51 76.50 76.23 77.49
68.76 67.25 67.71 67.48 69.19 71.15 71.91 71.38 72.33 72.95 71.92 73.35 73.38 74.41 74.60 73.24 73.68 72.35 72.99 73.40 73.30 71.92 71.49 71.60 70.88 70.57 70.22 69.78 71.50 71.42 70.76 71.67 72.03 72.58 72.14 72.39 72.30 71.93 72.80 72.01 71.99 73.96 76.52
68.04 65.51 68.53 67.12 68.85 70.22 70.25 70.37 69.10 69.47 71.63 72.46 74.55 75.10 74.12 74.04 74.36 72.71 72.91 73.08 73.74 72.41 72.00 71.97 71.30 71.95 69.61 70.59 70.11 69.48 70.70 71.82 70.90 72.20 72.36 71.91 72.41 72.98 73.39 72.65 71.96 72.45 72.87
65.59 65.97 68.43 68.46 69.45 70.26 69.36 68.98 71.90 72.08 71.83 72.58 74.94 75.43 74.82 74.88 75.35 73.36 72.81 72.61 73.40 72.69 72.15 72.06 71.20 70.13 69.90 70.41 68.30 67.79 65.29 65.90 68.28 70.44 71.27 72.15 71.85 72.82 73.43 73.71 72.71 72.35 73.03
65.91 66.78 68.69 69.83 69.75 70.17 70.95 70.56 70.81 70.31 71.42 71.62 71.72 73.08 74.76 75.03 74.55 74.60 73.41 72.86 73.01 72.29 71.56 71.67 71.21 70.68 69.39 70.36 70.50 67.26 62.95 62.71 64.44 67.94 69.71 70.85 72.17 71.96 71.32 71.09 71.88 73.26 72.32
67.07 68.50 69.35 69.62 69.42 69.84 70.14 69.44 69.25 67.11 67.08 69.92 71.67 72.07 73.00 73.93 75.28 74.70 74.65 73.42 72.72 72.38 71.70 72.29 73.09 71.93 70.63 68.36 69.32 70.42 70.11 66.99 64.74 64.90 68.62 69.25 70.24 70.18 69.35 69.58 72.21 73.22 72.76
68.87 68.88 69.11 69.75 68.89 69.92 69.96 70.12 69.73 67.57 68.63 70.02 71.83 70.47 70.69 72.27 74.09 75.40 74.32 73.60 73.76 71.98 70.96 71.60 72.54 72.18 71.58 69.78 68.92 68.60 67.97 68.56 67.77 65.36 63.47 65.41 67.64 68.15 68.76 69.55 71.75 69.99 71.63
69.26 69.65 69.51 69.24 68.96 69.09 69.62 69.95 70.86 68.88 69.21 70.34 70.94 69.97 71.86 73.21 74.75 74.40 74.85 73.94 73.94 73.46 73.10 72.85 72.79 72.16 72.03 71.69 70.70 69.82 68.83 67.41 65.43 65.56 64.70 65.32 65.68 67.67 69.08 69.35 71.46 70.25 71.04
MSLP
1014.56 1014.23 1014.16 1014.19 1014.26 1014.41 1014.73 1015.01 1015.05 1015.07 1015.06 1015.12 1015.16 1015.25 1015.31 1015.39 1015.47 1015.64 1015.73 1015.78 1015.85 1015.94 1016.07 1016.20 1016.33 1016.47 1016.60 1016.62 1016.64 1016.64 1016.67 1016.73 1016.82 1016.86 1016.96 1017.09 1017.23 1017.26 1017.38 1017.57 1017.69 1017.77 1018.06
1013.82 1014.09 1014.20 1014.17 1014.32 1014.46 1014.74 1015.06 1015.19 1015.22 1015.23 1015.30 1015.34 1015.42 1015.52 1015.55 1015.64 1015.77 1015.90 1015.92 1015.93 1016.01 1016.14 1016.32 1016.42 1016.61 1016.75 1016.83 1016.94 1016.98 1016.98 1017.05 1017.05 1017.12 1017.23 1017.45 1017.52 1017.66 1017.73 1017.88 1017.99 1018.15 1018.32
1013.80 1013.94 1014.14 1014.18 1014.36 1014.53 1014.72 1015.00 1015.26 1015.30 1015.46 1015.55 1015.60 1015.68 1015.75 1015.85 1015.89 1015.94 1015.99 1016.03 1016.04 1016.11 1016.26 1016.48 1016.62 1016.74 1016.89 1017.03 1017.14 1017.21 1017.28 1017.32 1017.35 1017.37 1017.54 1017.80 1017.86 1018.00 1017.97 1018.11 1018.27 1018.48 1018.67
1013.55 1013.95 1014.17 1014.25 1014.37 1014.67 1014.92 1015.10 1015.30 1015.44 1015.64 1015.75 1015.80 1015.87 1015.97 1016.07 1016.11 1016.13 1016.17 1016.19 1016.26 1016.27 1016.37 1016.53 1016.68 1016.82 1017.02 1017.12 1017.28 1017.43 1017.61 1017.64 1017.62 1017.78 1017.91 1018.00 1018.04 1018.24 1018.26 1018.43 1018.59 1018.72 1018.95
1013.58 1014.02 1014.24 1014.33 1014.48 1014.75 1015.04 1015.21 1015.46 1015.60 1015.74 1015.83 1015.93 1015.95 1016.07 1016.29 1016.35 1016.28 1016.30 1016.35 1016.30 1016.44 1016.49 1016.60 1016.79 1016.99 1017.23 1017.43 1017.53 1017.63 1017.84 1017.89 1017.80 1018.14 1018.24 1018.26 1018.36 1018.47 1018.55 1018.71 1018.80 1018.98 1019.19
1013.71 1014.01 1014.21 1014.33 1014.53 1014.77 1015.12 1015.36 1015.48 1015.56 1015.81 1015.92 1016.04 1016.16 1016.19 1016.35 1016.47 1016.48 1016.38 1016.40 1016.44 1016.43 1016.56 1016.69 1016.88 1017.15 1017.36 1017.60 1017.71 1017.81 1017.96 1018.14 1018.17 1018.46 1018.56 1018.57 1018.63 1018.69 1018.83 1018.92 1019.00 1019.20 1019.35
1013.84 1014.05 1014.27 1014.39 1014.62 1014.85 1015.11 1015.39 1015.48 1015.53 1015.70 1015.88 1016.10 1016.18 1016.27 1016.42 1016.49 1016.53 1016.53 1016.53 1016.56 1016.55 1016.63 1016.77 1016.91 1017.12 1017.34 1017.63 1017.81 1017.96 1018.08 1018.19 1018.29 1018.52 1018.68 1018.80 1018.94 1018.98 1019.02 1019.11 1019.27 1019.44 1019.57
1013.53 1014.02 1014.35 1014.53 1014.65 1014.92 1015.09 1015.38 1015.48 1015.59 1015.78 1016.05 1016.19 1016.28 1016.38 1016.38 1016.48 1016.53 1016.60 1016.66 1016.66 1016.71 1016.70 1016.78 1016.97 1017.19 1017.50 1017.79 1017.93 1018.05 1018.11 1018.20 1018.31 1018.72 1018.95 1018.98 1018.95 1019.09 1019.26 1019.48 1019.57 1019.70 1019.80
1013.63 1013.99 1014.30 1014.41 1014.55 1014.85 1015.02 1015.26 1015.52 1015.70 1015.88 1016.08 1016.26 1016.37 1016.49 1016.53 1016.59 1016.63 1016.67 1016.68 1016.75 1016.78 1016.92 1017.00 1017.06 1017.24 1017.55 1017.85 1018.08 1018.23 1018.23 1018.31 1018.65 1018.86 1019.15 1019.17 1019.04 1019.15 1019.35 1019.50 1019.71 1019.89 1020.03
1014.03 1014.17 1014.35 1014.36 1014.48 1014.65 1014.88 1015.24 1015.48 1015.70 1015.92 1016.13 1016.31 1016.39 1016.54 1016.73 1016.86 1016.85 1016.80 1016.83 1016.80 1016.82 1016.99 1017.17 1017.23 1017.35 1017.54 1017.80 1018.06 1018.33 1018.42 1018.52 1018.62 1018.94 1019.15 1019.29 1019.20 1019.23 1019.43 1019.61 1019.74 1019.95 1020.15
1014.37 1014.46 1014.51 1014.46 1014.66 1014.72 1014.95 1015.19 1015.45 1015.70 1015.92 1016.08 1016.17 1016.33 1016.54 1016.99 1017.17 1017.16 1017.04 1016.92 1016.88 1016.94 1017.11 1017.26 1017.35 1017.41 1017.58 1017.80 1017.95 1018.16 1018.39 1018.60 1018.62 1018.89 1019.13 1019.27 1019.20 1019.27 1019.44 1019.78 1019.96 1020.14 1020.29
1014.27 1014.55 1014.55 1014.41 1014.57 1014.85 1014.86 1015.17 1015.36 1015.55 1015.75 1016.04 1016.27 1016.40 1016.69 1016.82 1017.06 1017.11 1017.18 1017.04 1016.96 1017.05 1017.12 1017.34 1017.52 1017.59 1017.64 1017.89 1018.08 1018.11 1018.51 1018.60 1018.61 1018.80 1019.04 1019.19 1019.34 1019.43 1019.51 1019.64 1019.94 1020.17 1020.37
1013.59 1014.05 1014.26 1014.31 1014.38 1014.66 1014.85 1015.22 1015.46 1015.65 1015.97 1016.23 1016.30 1016.45 1016.59 1016.68 1016.80 1017.04 1017.26 1017.25 1017.24 1017.15 1017.29 1017.35 1017.58 1017.72 1017.86 1018.07 1018.18 1018.34 1018.53 1018.66 1018.80 1018.80 1018.93 1019.14 1019.32 1019.47 1019.66 1019.78 1019.79 1020.00 1020.22
1013.36 1013.38 1013.85 1014.04 1014.31 1014.46 1014.88 1015.28 1015.64 1015.74 1015.98 1016.32 1016.54 1016.43 1016.49 1016.59 1016.68 1016.79 1017.10 1017.31 1017.31 1017.31 1017.48 1017.53 1017.73 1017.82 1017.91 1017.99 1018.06 1018.15 1018.31 1018.32 1018.54 1018.61 1018.63 1018.71 1018.90 1019.19 1019.38 1019.61 1019.78 1019.95 1020.19
1013.14 1013.19 1013.48 1013.86 1014.07 1014.18 1014.71 1015.16 1015.59 1015.73 1015.88 1016.03 1016.17 1016.24 1016.37 1016.50 1016.59 1016.59 1016.87 1017.17 1017.29 1017.32 1017.44 1017.65 1017.77 1017.84 1017.89 1017.86 1017.81 1017.92 1017.89 1018.20 1018.26 1018.38 1018.50 1018.36 1018.50 1018.72 1019.15 1019.36 1019.47 1019.65 1019.83
1013.26 1012.97 1013.17 1013.66 1013.82 1013.77 1014.43 1014.91 1015.20 1015.62 1016.00 1015.98 1015.89 1016.14 1016.13 1016.26 1016.19 1016.48 1016.67 1016.97 1017.07 1017.14 1017.25 1017.49 1017.68 1017.75 1017.64 1017.67 1017.62 1017.67 1017.80 1017.90 1017.99 1018.29 1018.24 1018.56 1018.56 1018.69 1018.83 1019.01 1019.23 1019.38 1019.67
1013.15 1013.11 1013.03 1013.35 1013.59 1013.84 1014.22 1014.50 1014.93 1015.62 1016.20 1015.55 1015.12 1015.49 1015.80 1015.96 1015.80 1016.14 1016.33 1016.64 1016.64 1016.82 1017.05 1017.34 1017.50 1017.56 1017.65 1017.55 1017.66 1017.29 1017.11 1017.21 1017.49 1017.77 1018.14 1018.42 1018.35 1018.38 1018.56 1018.66 1018.78 1018.92 1019.22
1012.84 1013.40 1013.42 1013.22 1013.46 1013.72 1014.09 1014.16 1014.77 1015.65 1015.66 1015.41 1015.31 1015.00 1015.31 1015.59 1015.69 1016.27 1016.24 1016.35 1016.28 1016.60 1016.95 1017.24 1017.50 1017.61 1017.60 1017.59 1017.57 1017.28 1017.21 1017.02 1017.04 1017.30 1017.42 1017.73 1017.89 1017.89 1018.13 1018.26 1018.27 1018.32 1018.62
1012.79 1013.25 1013.53 1013.18 1013.29 1013.51 1013.83 1014.07 1014.48 1015.19 1015.41 1015.37 1014.90 1014.46 1014.90 1015.35 1015.51 1016.06 1015.99 1015.94 1016.05 1016.35 1016.78 1017.24 1017.50 1017.61 1017.57 1017.61 1017.49 1017.14 1016.94 1016.97 1016.85 1016.98 1016.79 1016.99 1017.16 1017.31 1017.43 1017.45 1017.66 1017.80 1018.01
1012.71 1013.19 1013.48 1013.25 1013.33 1013.46 1013.71 1013.99 1014.01 1014.44 1014.70 1014.90 1014.90 1014.64 1014.75 1015.16 1015.48 1016.00 1015.83 1015.70 1015.89 1016.40 1016.76 1017.14 1017.42 1017.50 1017.55 1017.50 1017.50 1017.18 1017.02 1016.73 1016.64 1016.65 1016.74 1016.54 1016.60 1016.52 1016.79 1016.89 1016.99 1017.35 1017.31
1013.16 1013.39 1013.53 1013.42 1013.41 1013.49 1013.81 1014.24 1014.44 1014.34 1014.21 1014.48 1014.25 1014.49 1014.58 1015.03 1015.43 1015.84 1015.62 1015.62 1015.84 1016.31 1016.57 1016.85 1017.08 1017.10 1017.28 1017.30 1017.53 1017.25 1016.91 1016.42 1016.33 1016.23 1016.16 1016.33 1016.07 1016.04 1016.19 1016.49 1016.83 1017.12 1017.12
1012.98 1013.37 1013.23 1013.25 1013.32 1013.38 1013.39 1013.70 1013.84 1013.76 1013.78 1013.89 1013.88 1013.98 1014.15 1014.48 1014.68 1015.08 1015.19 1015.51 1015.77 1016.15 1016.48 1016.63 1016.71 1016.99 1017.04 1017.03 1017.37 1017.44 1017.24 1016.69 1016.23 1015.76 1015.70 1015.84 1015.77 1015.57 1015.79 1016.03 1016.38 1016.42 1016.44
1012.73 1012.57 1012.70 1012.90 1013.06 1013.14 1013.31 1013.63 1013.81 1013.86 1013.99 1014.23 1014.35 1014.32 1014.28 1014.05 1014.39 1014.59 1014.81 1015.00 1015.37 1015.73 1016.10 1016.30 1016.40 1016.72 1016.93 1016.76 1016.78 1017.01 1017.19 1017.12 1016.90 1015.95 1015.65 1015.46 1015.34 1015.40 1015.41 1015.46 1015.41 1015.53 1015.68
1011.80 1012.01 1012.22 1012.54 1012.73 1012.89 1013.14 1013.64 1014.01 1014.11 1014.28 1014.23 1014.29 1014.17 1014.17 1013.96 1014.06 1014.29 1014.45 1014.65 1015.08 1015.49 1015.83 1015.90 1016.13 1016.36 1016.60 1016.67 1016.64 1016.30 1016.22 1016.49 1016.70 1016.58 1015.88 1015.38 1015.21 1015.20 1015.31 1015.28 1014.90 1014.79 1015.01
1011.26 1011.50 1011.68 1012.02 1012.23 1012.47 1012.98 1013.43 1013.90 1014.06 1014.05 1013.87 1013.98 1014.01 1014.10 1014.04 1013.91 1014.12 1014.35 1014.77 1015.28 1015.68 1015.78 1015.70 1015.80 1015.88 1015.94 1016.21 1016.22 1016.17 1016.22 1016.21 1016.30 1016.68 1016.51 1015.86 1015.47 1015.02 1014.85 1014.66 1014.44 1014.51 1013.82
1010.72 1011.09 1011.54 1011.72 1012.02 1012.34 1012.79 1013.19 1013.57 1013.84 1014.04 1014.10 1014.13 1014.22 1014.23 1014.28 1014.03 1013.83 1014.23 1014.75 1014.77 1015.05 1015.12 1015.14 1014.91 1015.04 1015.22 1015.38 1015.56 1015.77 1015.94 1016.15 1016.12 1016.25 1016.26 1015.82 1015.45 1014.89 1014.53 1014.19 1014.03 1013.86 1013.69
Wind_Speed
5 6 13 12 13 16 15 13 11 10 11 12 12 12 13 13 13 11 11 11 11 10 10 10 12 12 13 14 15 16 17 18 18 17 17 17 17 16 17 17 17 13 18
11 8 14 13 14 15 14 13 11 11 10 11 11 10 10 10 11 10 9 10 10 11 11 11 12 12 13 14 14 16 17 17 17 18 17 16 16 17 16 16 15 13 17
12 10 12 14 15 15 14 13 12 11 10 10 10 8 8 8 9 9 10 9 10 12 12 11 12 13 12 12 13 14 15 16 16 16 14 5 5 15 16 14 18 17 15
13 9 10 13 15 14 14 13 12 11 11 10 10 9 8 8 8 10 10 11 10 12 12 12 12 12 12 12 12 12 13 15 16 15 6 7 10 15 15 14 15 15 15
13 9 11 15 14 14 14 13 12 12 12 10 10 11 11 10 8 10 10 10 11 13 14 13 12 12 12 11 12 12 12 13 11 8 5 5 5 12 15 15 16 16 15
11 9 15 17 15 15 13 14 13 12 13 12 11 11 11 10 9 9 10 11 11 13 13 12 13 12 11 10 9 11 9 8 4 5 5 7 5 13 14 14 14 14 14
11 8 12 16 15 15 14 13 13 14 14 14 12 11 11 10 9 9 10 10 11 12 13 11 11 13 12 10 7 7 5 3 3 7 5 6 5 12 13 14 14 14 14
15 10 11 15 16 15 15 13 15 15 15 14 11 11 10 9 9 9 10 11 11 12 12 12 10 10 12 10 7 5 3 2 7 6 4 4 10 13 13 13 13 13 13
13 11 9 9 14 16 15 14 14 14 14 12 11 9 9 8 8 8 10 10 11 12 11 11 10 8 10 9 9 6 3 2 5 4 6 3 13 15 15 14 13 12 13
11 10 8 7 8 8 9 15 14 13 12 11 10 9 7 6 6 4 7 10 11 12 11 10 10 8 6 6 7 6 3 1 0 8 4 4 14 15 15 15 14 14 13
10 9 6 7 6 6 6 10 13 13 12 12 10 10 6 2 2 3 4 10 9 10 10 10 9 8 7 6 6 4 1 1 2 4 3 8 15 17 17 15 14 12 13
12 10 8 8 9 6 7 5 6 7 4 5 4 5 3 4 3 3 5 8 9 10 11 10 9 9 7 1 2 5 1 1 1 4 4 12 14 15 16 16 15 13 12
15 11 12 10 9 9 6 4 3 2 3 2 5 5 4 3 3 2 1 1 1 8 3 6 5 3 3 3 3 3 2 2 1 2 6 14 15 16 15 16 16 16 14
16 15 13 12 10 7 4 4 4 3 3 3 2 4 3 3 3 3 3 4 3 2 4 3 3 4 5 5 5 5 4 3 3 3 7 18 16 17 17 17 17 16 16
11 13 14 13 11 7 8 4 4 4 4 4 4 4 3 3 3 3 3 3 4 3 4 4 4 4 4 6 5 6 4 5 5 2 3 19 19 19 17 18 18 18 18
0 14 11 12 10 7 8 7 6 4 3 1 1 3 3 3 3 3 3 4 4 4 4 4 4 4 5 4 6 6 6 5 6 6 5 6 16 17 18 18 18 18 18
3 1 12 11 9 7 11 9 6 4 4 3 4 4 5 4 6 4 4 5 6 4 5 4 4 4 5 4 5 6 5 6 5 8 5 4 6 17 17 19 19 18 18
4 5 4 9 9 8 7 5 5 5 4 3 2 4 5 5 7 4 4 5 5 4 4 3 4 3 4 3 3 4 4 5 8 9 8 8 7 5 10 19 21 20 21
6 4 5 7 8 7 6 5 5 9 7 6 7 1 4 6 6 6 4 4 5 4 4 3 3 3 2 2 4 4 4 4 5 6 10 10 10 9 7 13 21 20 23
5 4 4 6 7 7 4 2 3 3 5 7 7 5 5 5 6 4 4 4 4 3 3 3 4 3 3 3 3 4 4 5 4 6 8 7 8 12 7 8 7 10 22
3 4 8 7 7 4 2 2 1 3 3 4 6 9 7 8 10 8 4 4 4 4 5 4 3 3 3 1 2 3 4 6 6 6 5 7 8 8 8 7 5 6 7
10 10 7 8 7 5 3 3 3 3 2 3 7 5 5 8 10 6 6 5 5 4 5 5 5 3 2 3 3 1 3 4 3 5 4 6 8 4 4 4 7 10 8
11 10 8 9 9 6 7 2 2 3 3 3 1 2 4 7 7 7 7 6 6 5 4 4 5 5 3 2 5 4 1 4 1 2 4 4 5 4 4 4 6 9 10
12 8 9 10 8 8 7 3 3 3 3 3 4 4 5 4 6 5 6 6 6 4 5 5 4 4 3 4 2 4 3 4 3 4 3 4 4 5 4 4 6 5 5
12 10 11 10 8 7 6 5 4 4 3 2 2 3 3 3 5 5 6 5 4 2 3 4 4 5 4 3 4 2 3 3 2 3 4 5 3 4 4 6 5 5 7
14 12 11 8 8 7 7 7 7 7 5 2 1 4 1 2 3 5 5 5 5 5 6 6 6 7 6 5 3 4 4 3 3 3 4 5 5 3 4 6 6 4 4
Wind_Direction
186 171 147 136 130 136 134 130 120 108 103 98 96 98 105 103 95 87 94 106 111 115 120 116 120 122 116 116 113 114 114 114 112 111 110 112 115 115 109 113 112 111 120
150 156 146 135 127 132 135 135 128 123 115 111 106 103 104 108 110 107 105 116 120 124 124 124 124 122 119 118 118 118 118 119 117 116 115 118 122 121 120 121 121 120 125
147 150 140 137 133 130 135 141 135 121 125 118 112 110 113 114 119 118 113 119 128 130 130 132 126 124 121 119 121 119 120 119 114 111 108 96 123 125 126 123 121 123 123
146 148 141 140 135 134 131 129 133 131 123 127 120 119 118 122 128 123 117 115 124 135 136 140 137 129 124 124 123 126 129 126 115 115 104 112 121 125 125 121 121 123 128
147 147 149 141 138 135 132 130 129 133 123 125 124 121 122 124 125 125 121 116 123 142 144 146 140 134 132 131 132 136 140 147 113 111 92 108 112 131 130 128 129 129 126
144 144 148 143 139 136 142 134 130 130 127 127 127 123 126 123 122 124 127 124 125 139 147 149 147 144 138 135 140 132 135 163 154 112 125 128 112 137 137 137 137 140 129
138 146 145 140 138 138 135 137 141 134 135 130 127 128 135 141 139 133 131 131 128 137 145 157 160 151 146 143 144 137 137 182 139 140 138 131 144 151 147 142 140 143 142
139 140 145 141 137 141 139 149 145 142 139 132 127 125 125 133 138 144 144 139 139 137 144 151 161 163 153 152 152 156 154 52 117 118 144 148 145 142 144 146 147 148 148
139 140 146 148 145 146 149 155 150 153 155 146 138 140 117 116 114 140 151 150 146 145 148 150 155 159 159 156 156 150 134 110 100 132 162 172 155 156 157 156 156 156 156
140 147 154 150 146 155 161 159 158 163 162 160 151 139 138 133 129 137 149 160 158 156 156 162 167 176 175 169 165 165 177 111 131 161 166 191 167 165 165 163 164 164 163
148 158 153 150 155 162 155 164 161 166 168 166 161 152 134 120 304 299 182 171 168 162 163 170 179 190 202 209 218 229 216 268 265 157 154 211 172 173 171 170 171 170 171
161 167 170 160 165 165 172 158 163 170 167 147 147 136 153 166 183 204 208 184 179 177 174 175 186 194 207 234 278 272 118 249 337 161 171 194 181 184 180 173 174 176 178
169 167 176 171 174 169 171 174 158 150 145 168 166 166 169 167 182 154 198 258 197 184 185 181 191 204 209 216 253 251 221 205 218 178 180 188 188 195 194 189 184 185 189
168 174 178 168 177 175 141 178 140 163 150 174 179 192 180 192 204 189 189 208 204 185 189 187 194 213 222 230 228 240 214 204 182 177 200 188 189 203 201 199 196 195 196
154 173 176 165 181 171 158 167 154 174 176 178 166 172 192 203 228 206 202 202 209 196 192 200 205 218 225 236 239 224 215 193 201 187 201 197 197 196 205 203 203 200 202
22 165 163 168 182 166 166 164 178 151 111 211 167 180 191 196 219 210 197 208 209 200 200 199 205 215 234 223 238 231 219 198 193 182 169 222 213 206 211 208 209 207 210
85 105 153 159 160 163 168 174 161 135 163 191 209 199 191 202 253 235 202 206 209 199 191 205 228 233 243 235 237 239 221 214 183 186 195 205 215 223 222 214 211 211 213
102 354 217 159 160 158 151 169 147 155 197 207 325 220 201 212 231 247 234 209 196 187 180 197 219 258 244 204 244 248 220 210 202 191 193 204 207 204 231 228 219 214 213
164 200 234 159 163 177 168 181 170 167 187 185 227 268 189 215 226 224 220 206 184 188 183 201 219 198 239 212 254 270 263 216 208 198 202 204 207 208 216 231 230 220 219
173 220 203 187 173 183 194 192 253 147 173 179 208 231 185 183 218 197 226 189 170 166 185 198 215 217 223 225 256 273 267 267 204 197 219 217 220 221 220 205 223 234 228
185 201 184 167 191 162 174 151 257 244 183 185 197 205 174 189 195 206 184 171 168 173 194 199 197 236 252 178 316 296 271 243 223 221 196 217 223 216 207 215 208 238 244
189 198 176 192 182 199 180 183 194 188 187 153 188 193 181 183 187 180 176 178 179 173 207 202 190 202 228 172 190 277 291 324 306 240 223 223 220 191 211 186 215 227 220
182 186 183 184 188 191 208 106 35 27 45 72 84 267 240 193 169 177 183 171 182 181 203 203 187 186 216 239 190 172 260 233 321 312 271 242 230 205 180 187 223 218 216
195 182 186 191 192 203 182 160 156 197 169 201 190 203 220 199 186 174 182 183 181 178 196 208 184 202 181 246 269 237 222 185 190 306 303 272 253 249 219 216 229 217 214
200 194 201 196 195 198 183 170 184 202 196 189 189 209 228 207 201 204 182 174 183 191 218 228 210 208 204 209 197 251 237 262 224 199 272 284 308 259 237 232 229 214 212
205 201 202 200 211 196 190 188 194 203 188 167 213 222 187 293 241 199 161 176 185 200 203 211 218 211 217 219 214 216 213 215 244 208 239 260 244 247 229 238 234 219 264